Weather in Benoy

Russia / Chechen Republic     42°58′57″N   46°18′20″E
temp.,
°C
wind,
m/s
gust,
m/s
humid.,
%
clouds,
%
prec.,
mm/h
press.,
hPa
HPBL,
m
7 march, sun
sun700:00+4ssw3344100 0.0 101333
03:00+3sw2551100 0.0 1014106
06:00+1nw4899100 2.2 1019528
09:00−3wnw5893100 7.8 1022835
12:00−2nw4689100 1.7 1022685
15:00−2nnw2377100 3.0 1021737
18:00−4e118190 0.4 102221
21:00−5se117656 0.4 102321
8 march, mon
mon800:00−5sse11741 0.0 102221
03:00−5s11751 0.0 102221
06:00−5ssw11750 0.0 102121
09:00−1n216811 0.0 1020337
12:00+1n217173 0.0 1017636
15:000n227486 0.2 1016633
18:00−2wnw1285100 0.3 1016104
21:00−3ssw2394100 1.3 1017202
9 march, tue
tue900:00−3w1392100 0.5 1017284
03:00−4ssw1194100 0.8 101739
06:00−4ssw1293100 0.2 101830
09:000nnw118099 0.3 1018427
12:00+1n227796 0.3 1017654
15:00+1n117697 0.7 1017700
18:00−2s118385 0.1 101827
21:00−3s227769 0.1 102130
10 march, wed
wed1000:00−3s227259 0.0 102123
03:00−4s118669 0.1 102149
06:00−5s118385 0.8 102257
09:00−2nne218788 1.3 1022347
12:00−1nne338397 0.4 1021601
15:00−1nne239198 1.8 1020413
18:00−2nne2398100 1.9 1020269
21:00−3n1297100 3.7 1020181
11 march, thu
thu1100:00−4se0192100 0.2 101983
03:00−4se0194100 0.3 101852
06:00−4ne1197100 1.1 101990
09:00−3ne3594100 2.5 1019397
12:00−2ne5791100 1.0 1019574
15:00−3ne5892100 2.3 1019612
18:00−7nne4796100 2.8 1022501
21:00−8n2596100 4.9 1024358